Dewpoint
28 14 15 16 21 25 24 26 24 24 23 23 21 19 18 18 19 24 24 25 25 18 17 16 16 15 15 14 13 13 13 11 10 10 10 11 11 11 15 19 21 21 20 27 28 27 27 28 26 25 24 22 23 22 20 20 20 21 18 18 16 17 17 18 16 16 18 17 18 17 16 15 13 13 11 10 12 13 12 14 15 16 15 15 16 20
28 17 19 23 25 27 21 25 22 21 21 19 19 18 18 20 16 20 23 24 25 16 18 19 16 15 14 14 14 14 13 10 9 10 9 9 12 17 18 19 20 20 25 24 21 24 29 26 29 27 24 26 19 19 20 19 18 19 21 18 18 18 17 17 16 18 18 19 17 16 16 15 14 13 13 13 11 10 13 15 15 15 15 15 15 18
22 18 24 22 24 27 25 24 24 21 22 23 17 16 14 18 19 22 22 22 24 19 16 17 15 13 14 15 16 17 15 11 10 11 10 13 16 16 17 17 18 18 18 18 19 22 22 28 28 24 24 22 21 20 19 21 21 21 21 22 22 22 21 20 21 24 19 17 18 17 16 15 15 15 13 12 14 14 14 12 14 15 15 15 14 15
17 23 26 20 25 23 22 24 21 22 20 14 16 14 15 20 15 15 22 23 22 17 16 16 16 16 17 17 17 14 11 12 19 18 17 17 15 15 16 18 19 19 20 19 19 19 19 22 23 25 24 24 23 23 21 21 21 23 26 22 22 23 22 22 23 27 25 23 21 20 18 18 15 13 20 18 14 12 13 12 13 13 14 15 14 15
18 24 22 25 22 24 22 23 21 17 16 22 19 18 16 17 17 16 16 22 22 22 22 19 15 14 17 16 9 12 17 17 18 17 17 18 19 19 21 20 20 19 20 20 20 20 20 20 23 24 25 25 24 24 22 22 22 23 23 23 23 23 23 23 26 21 21 22 20 19 18 19 17 16 14 13 12 12 14 16 12 11 14 14 15 15
21 25 25 23 23 22 21 20 21 20 15 18 21 19 18 19 16 19 21 16 12 12 19 17 9 11 13 11 8 10 12 13 15 17 17 17 17 19 19 20 22 23 22 21 21 21 22 22 23 23 23 22 21 22 24 24 24 24 24 24 24 24 24 23 22 23 22 20 19 17 16 15 16 15 15 13 13 13 12 10 9 10 11 13 14 14
23 22 25 24 22 22 20 20 23 20 16 13 18 20 18 18 18 18 19 15 10 6 15 18 8 10 12 11 9 10 12 12 14 16 17 17 18 19 19 19 20 20 21 23 22 22 21 22 22 22 22 23 23 23 24 24 25 25 25 25 25 24 25 24 21 21 23 18 17 16 15 15 14 14 14 13 12 12 11 12 10 10 9 11 12 13
22 22 22 22 22 21 20 19 23 21 17 17 19 20 18 17 16 16 19 16 12 18 18 19 13 7 9 10 13 11 11 12 12 14 15 16 17 18 18 20 21 21 22 23 23 23 23 23 23 22 23 24 24 25 26 25 26 25 25 26 26 25 25 24 23 22 22 20 19 18 17 18 16 15 14 14 13 13 14 13 12 11 8 7 8 10
24 19 22 20 20 21 20 21 21 22 15 19 20 19 17 16 17 20 16 15 17 13 13 14 18 9 8 13 10 11 9 10 12 15 17 17 18 19 20 21 21 22 22 22 22 23 23 23 23 24 24 25 25 26 26 26 26 26 26 27 26 25 24 23 22 24 22 23 21 19 18 17 18 17 17 17 19 19 17 14 12 10 9 8 6 7
29 23 25 24 20 17 22 18 24 20 15 22 23 21 20 20 20 18 15 15 13 8 7 13 16 5 8 11 8 9 10 10 15 17 18 19 19 20 21 21 22 23 23 23 23 24 24 24 23 25 25 24 26 26 28 27 26 26 26 26 27 24 24 24 23 22 21 21 22 20 19 18 17 17 17 16 15 14 14 12 11 10 9 7 5 4
28 30 32 26 23 21 15 16 23 23 21 23 22 20 21 21 19 18 16 13 8 5 11 14 17 5 4 10 11 13 13 14 16 17 18 20 20 21 21 22 23 23 23 23 24 24 25 25 24 25 24 24 25 26 27 26 26 26 26 26 25 24 24 24 24 23 21 21 21 20 19 18 17 17 16 15 14 14 12 11 10 10 9 8 6 5
28 26 20 23 28 27 20 20 26 23 22 18 17 16 14 14 13 12 12 12 4 4 10 8 11 12 0 9 12 14 16 17 16 16 16 18 20 21 21 22 23 23 23 23 24 25 25 24 24 24 24 25 24 25 25 26 26 26 25 25 24 24 24 24 25 24 23 22 22 21 20 18 17 16 16 15 14 13 12 12 11 11 10 8 7 5
22 24 25 27 28 23 22 17 21 24 23 19 19 18 6 7 7 2 9 3 3 7 7 5 11 7 6 7 13 14 15 17 18 19 17 18 19 20 22 23 23 23 23 24 24 24 24 24 24 24 24 24 24 24 24 25 25 25 24 23 23 23 24 24 24 24 24 23 23 22 20 19 19 17 16 15 14 14 13 12 11 10 9 8 7 6
16 23 24 24 23 26 23 15 14 13 19 18 15 10 8 4 1 -2 2 4 5 10 8 8 10 6 9 10 13 14 16 17 17 18 18 18 19 20 21 22 22 23 23 23 24 24 24 24 23 24 24 23 22 22 23 24 24 24 22 20 21 21 23 23 23 22 23 23 23 22 21 20 19 18 17 16 15 14 13 12 11 11 10 9 8 8
5 12 17 23 20 23 21 16 16 14 15 16 18 10 9 7 1 -0 2 -1 2 8 12 8 4 5 7 9 14 14 17 18 19 19 20 20 21 21 21 21 22 22 22 23 23 23 24 23 23 23 23 21 21 21 22 22 22 20 17 17 17 18 19 19 20 21 21 22 22 21 21 21 20 18 17 16 16 14 13 12 12 11 10 9 9 8
13 12 19 23 21 20 21 23 21 17 13 17 15 15 9 8 13 6 6 5 3 6 6 5 6 9 11 14 18 16 16 17 18 18 19 18 20 20 21 21 22 22 23 22 23 23 23 23 23 23 21 20 21 20 21 19 18 16 16 16 17 17 17 17 18 18 19 19 19 20 20 20 21 22 21 19 19 17 15 14 13 12 11 10 9 8
15 7 18 23 22 13 15 20 21 19 6 10 9 6 10 15 9 5 11 13 10 4 5 7 9 10 12 12 14 15 15 16 17 17 18 18 18 20 20 21 21 22 23 23 24 23 23 22 23 22 19 19 19 19 18 17 16 15 15 16 16 16 16 16 16 14 14 16 18 19 20 21 20 20 20 19 18 17 15 14 12 11 11 10 9 8
7 11 20 21 20 21 19 19 21 21 18 11 7 11 18 16 15 9 2 2 2 1 4 7 7 6 8 7 13 15 14 15 16 16 17 18 19 19 21 21 21 20 22 23 24 23 23 22 21 20 19 18 18 17 17 16 16 16 15 15 15 15 14 13 12 12 14 16 16 17 18 21 22 22 20 19 19 17 16 15 13 12 10 9 9 8
14 10 14 18 20 22 22 20 17 21 20 12 11 18 9 4 7 11 5 -1 2 -0 2 6 9 7 10 11 13 13 14 14 15 16 18 18 19 19 20 21 20 19 22 24 23 23 22 21 19 18 17 17 17 17 17 16 16 15 14 14 13 12 11 11 11 13 14 13 13 15 16 17 18 19 19 19 19 17 17 17 16 14 12 11 10 10
19 7 13 18 17 17 14 15 12 14 17 20 18 11 17 10 6 2 7 4 6 2 0 1 2 6 9 10 12 13 14 16 17 18 18 19 19 20 20 20 19 19 21 24 23 22 21 19 18 17 16 17 17 17 16 14 14 13 12 11 11 10 9 10 11 11 9 9 11 14 15 16 17 17 17 18 18 18 19 19 18 17 16 15 14 11
15 12 7 14 19 18 12 12 10 12 7 9 10 10 11 8 12 13 8 7 6 -0 -1 1 0 7 13 13 15 14 15 17 18 18 19 19 19 20 18 18 18 18 18 24 23 20 19 18 16 16 16 18 17 16 14 13 12 12 11 10 9 9 10 11 10 9 9 11 12 13 12 12 11 11 12 13 14 15 16 17 18 16 16 16 15 10
12 15 11 14 10 10 11 17 14 14 14 13 15 11 14 8 7 5 8 8 7 5 3 3 3 8 14 15 15 16 18 19 20 19 18 18 17 18 17 17 17 17 17 24 21 19 18 15 14 15 17 17 15 12 10 11 11 10 9 9 9 10 10 9 9 9 10 10 9 9 10 11 11 11 12 12 13 14 15 15 14 14 15 15 14 14
14 15 12 11 11 11 10 12 15 17 19 17 12 9 16 14 10 6 3 5 4 5 6 5 3 7 15 18 18 19 20 20 19 18 16 16 16 16 16 16 16 17 20 22 19 17 15 14 15 17 17 14 11 9 8 8 9 9 8 9 9 9 8 8 8 10 9 7 6 6 8 10 10 10 11 12 14 16 17 16 16 17 17 16 16 16
23 10 7 14 17 17 13 16 13 14 17 14 12 11 10 7 8 11 6 6 6 3 4 3 4 9 17 21 21 21 21 19 17 16 15 15 15 15 15 15 15 19 22 20 18 15 15 15 17 17 13 11 8 6 6 7 8 9 9 8 8 7 6 7 9 9 6 4 4 5 7 8 9 9 11 14 13 14 15 15 15 16 17 17 16 15
8 15 10 7 7 10 11 11 13 15 16 10 11 13 17 13 11 10 8 6 4 4 9 5 4 7 15 21 20 18 17 16 15 14 14 14 14 15 14 15 18 21 21 18 16 15 15 16 16 13 10 8 5 5 7 8 8 8 7 5 5 5 6 8 8 5 2 2 2 4 6 6 7 10 13 11 10 9 9 10 12 13 13 14 15 15
12 14 10 4 1 2 2 1 6 10 11 13 15 12 13 8 8 6 5 7 5 7 12 9 11 15 18 19 19 17 16 14 14 13 14 14 15 15 15 18 21 21 20 18 16 15 16 15 12 10 8 5 4 5 7 8 7 5 3 3 4 6 7 5 2 0 1 1 3 4 6 7 10 9 6 4 4 4 4 7 8 9 10 11 12 14
14 16 15 12 10 9 11 11 17 19 13 10 12 11 11 12 11 9 7 6 6 7 11 14 16 16 16 18 17 15 15 13 12 12 13 14 15 15 18 20 20 19 19 18 16 15 14 12 10 8 5 3 4 6 6 6 5 3 3 4 5 6 3 -0 -1 0 1 2 4 6 6 7 3 2 1 1 1 1 2 2 2 2 3 5 6 9
12 10 14 16 14 14 15 16 17 18 12 12 10 9 13 11 9 8 9 11 16 12 11 17 16 15 15 16 16 13 13 12 12 13 14 15 15 17 19 19 21 19 19 17 15 13 11 10 7 4 2 2 3 4 5 5 4 3 3 5 5 1 -2 -2 -1 0 2 4 5 2 -1 -3 -5 -4 -3 -1 1 1 0 0 -0 0 3 5 6 8
12 11 12 11 9 12 14 13 13 14 14 13 12 12 12 12 11 10 11 14 14 10 11 14 15 12 15 14 14 12 12 12 12 14 16 16 16 19 18 16 17 17 16 14 13 11 10 7 4 1 1 2 3 3 5 4 3 3 4 3 -2 -3 -3 -2 -0 1 3 2 -1 -3 -3 -3 -3 -3 -2 -1 -2 -1 -1 -1 -0 2 4 8 8 7
10 9 11 13 13 13 13 14 16 15 15 11 12 16 16 13 11 12 14 16 15 12 14 15 15 14 15 12 12 12 12 13 15 16 16 14 17 18 15 15 16 15 14 12 11 9 6 4 1 1 3 3 2 4 5 3 2 2 0 -2 -3 -3 -2 -2 -0 1 -1 -5 -6 -5 -4 -3 -3 -4 -5 -5 -5 -3 -1 -0 1 3 4 1 2 4
16 10 16 10 9 12 14 14 12 12 12 13 16 15 14 15 15 15 13 14 13 10 12 13 12 10 15 12 12 12 13 16 16 16 14 13 16 15 13 15 14 14 12 11 8 6 3 2 1 2 3 2 3 4 3 2 0 -2 -4 -4 -4 -4 -4 -2 1 -3 -6 -7 -5 -5 -5 -4 -5 -5 -6 -6 -5 -2 -3 -3 -3 -2 -2 -1 1 2
8 10 11 9 9 10 13 13 13 15 13 14 15 16 15 14 11 13 9 13 11 7 10 9 7 9 14 12 11 12 16 16 15 15 13 14 14 13 11 12 12 12 10 8 6 5 2 1 2 3 2 2 3 3 2 -0 -3 -4 -4 -4 -4 -5 -4 -1 -3 -6 -6 -6 -5 -6 -6 -6 -6 -6 -6 -6 -5 -5 -5 -4 -3 -3 -2 -1 -0 2
11 10 9 8 8 5 12 14 13 14 12 8 9 16 16 15 15 14 15 15 16 16 8 6 8 13 12 12 12 15 16 15 14 14 12 13 12 11 10 11 13 10 7 7 5 3 1 1 2 2 2 2 2 2 2 -2 -4 -4 -4 -4 -5 -5 -3 -3 -5 -7 -7 -7 -7 -8 -7 -6 -7 -6 -5 -5 -6 -5 -5 -5 -5 -3 -2 -2 -0 1
12 10 9 12 8 4 10 13 13 9 5 6 17 19 17 15 15 14 14 14 14 14 12 13 12 12 12 12 15 15 15 14 14 13 14 12 11 11 11 12 11 9 7 6 4 2 0 1 1 2 2 1 2 2 -0 -3 -3 -4 -4 -5 -6 -5 -3 -4 -6 -7 -8 -8 -8 -7 -7 -7 -7 -7 -7 -7 -7 -6 -5 -4 -4 -4 -3 -2 -1 -0
11 11 10 10 8 9 8 11 7 3 4 16 17 16 17 16 17 16 15 15 13 12 12 13 13 13 12 15 16 15 15 14 14 12 15 12 12 11 12 12 9 7 4 3 2 -0 -1 -0 1 1 1 1 2 1 -2 -3 -5 -6 -6 -7 -6 -5 -3 -5 -7 -8 -8 -8 -7 -7 -7 -8 -8 -8 -8 -7 -7 -6 -6 -6 -5 -4 -4 -3 -2 -1
10 12 10 11 9 7 6 6 2 2 16 19 17 16 17 17 17 15 13 16 16 14 14 14 13 13 14 15 15 14 14 14 13 12 13 11 11 11 12 9 6 2 -0 2 -0 -2 -1 -1 0 0 -0 1 1 -1 -3 -5 -6 -7 -7 -6 -6 -3 -4 -6 -8 -9 -8 -7 -8 -9 -10 -9 -8 -8 -8 -8 -7 -7 -7 -6 -6 -6 -4 -3 -2 0
13 10 10 10 8 5 6 7 8 14 15 14 15 16 15 14 14 14 11 11 17 17 15 13 12 13 15 14 14 14 13 12 11 10 11 11 11 11 8 5 0 -1 -1 1 -1 -2 -1 -1 -0 -0 -0 -0 -1 -3 -4 -6 -7 -7 -7 -6 -5 -4 -5 -7 -8 -9 -8 -9 -10 -9 -9 -9 -9 -9 -9 -8 -8 -8 -8 -7 -6 -5 -4 -3 -2 -0
14 9 11 8 10 11 8 3 2 3 3 8 16 17 16 17 15 14 12 10 18 16 14 13 13 14 14 14 13 12 12 9 8 9 11 10 10 7 3 -0 -3 -3 1 -1 -2 -2 -1 -2 -1 -1 -1 -2 -3 -4 -5 -7 -8 -7 -7 -6 -5 -5 -7 -9 -9 -9 -9 -10 -9 -9 -9 -9 -9 -9 -9 -9 -9 -9 -8 -7 -6 -5 -4 -3 -2 -1
15 14 12 12 9 8 5 5 3 1 1 15 14 15 16 15 15 14 8 7 18 15 14 16 15 15 13 13 12 11 10 7 7 9 10 10 8 4 -0 -3 -5 -3 0 -1 -2 -2 -2 -2 -2 -1 -2 -4 -5 -4 -6 -7 -7 -8 -7 -7 -6 -7 -8 -9 -9 -9 -9 -9 -9 -9 -9 -9 -9 -10 -10 -10 -10 -9 -8 -7 -6 -5 -3 -3 -2 -0
12 11 9 9 6 8 6 6 1 2 2 13 15 15 15 15 15 7 -5 1 15 14 16 15 15 13 13 12 12 11 10 6 7 9 9 8 6 1 -1 -3 -4 -2 -0 -2 -2 -1 -2 -2 -2 -2 -4 -6 -6 -5 -6 -7 -8 -7 -8 -6 -6 -8 -9 -9 -10 -9 -9 -9 -10 -9 -10 -10 -10 -10 -11 -10 -10 -9 -8 -7 -6 -5 -4 -3 -1 1
10 11 9 9 9 7 9 2 1 6 15 15 15 15 16 15 9 -1 -2 12 13 15 15 15 15 13 12 11 11 9 10 9 10 9 8 5 3 0 -1 -3 -5 -1 -1 -2 -2 1 -3 -3 -2 -3 -5 -6 -6 -6 -7 -8 -8 -8 -7 -7 -8 -9 -9 -9 -9 -9 -9 -10 -10 -11 -11 -11 -11 -11 -11 -10 -10 -8 -7 -6 -6 -5 -3 -2 0 2
6 9 9 5 5 3 2 3 4 4 16 16 16 15 16 8 3 5 16 13 15 16 15 15 14 13 11 10 9 8 7 6 6 7 4 3 1 -1 -2 -5 -4 -1 -1 -1 -1 -2 -4 -4 -4 -4 -5 -6 -7 -7 -8 -9 -9 -8 -8 -9 -10 -10 -9 -9 -9 -9 -10 -11 -11 -11 -12 -11 -11 -11 -11 -10 -9 -8 -8 -6 -5 -4 -2 -1 1 2
9 9 8 5 3 3 2 0 1 -1 7 19 17 14 17 10 14 14 13 14 17 15 15 14 14 12 10 9 7 7 6 5 6 5 2 2 1 -2 -4 -5 -4 -3 -3 -3 -4 -4 -4 -4 -5 -5 -6 -7 -8 -8 -9 -9 -9 -9 -9 -10 -10 -9 -9 -9 -10 -10 -11 -11 -12 -12 -12 -12 -12 -12 -11 -10 -9 -8 -8 -6 -5 -3 -0 1 2 -0
12 6 3 0 3 -2 -2 2 3 7 17 19 17 13 16 12 14 15 16 15 17 15 14 13 13 12 9 7 6 6 5 6 5 2 -0 1 -1 -3 -5 -5 -4 -4 -4 -3 -4 -5 -3 -5 -5 -6 -7 -8 -9 -9 -9 -9 -10 -9 -10 -11 -9 -9 -9 -10 -11 -11 -12 -13 -13 -13 -13 -13 -12 -12 -11 -9 -8 -7 -8 -7 -4 -2 -2 -2 -1 -1
14 7 5 4 5 4 5 8 14 19 19 19 18 16 14 16 18 18 17 16 14 14 13 12 12 10 8 7 6 5 6 6 2 -1 -1 -0 -2 -4 -5 -5 -4 -4 -4 -4 -5 -5 -5 -6 -6 -7 -8 -9 -10 -10 -9 -9 -10 -10 -11 -10 -9 -10 -11 -11 -11 -13 -13 -14 -14 -14 -14 -13 -13 -12 -10 -8 -8 -8 -8 -6 -4 -6 -5 -3 -2 -2
15 15 15 12 8 10 7 13 18 18 17 16 17 16 16 18 18 17 15 14 14 13 12 11 10 8 7 6 4 5 5 2 -1 -2 -1 -2 -3 -4 -4 -4 -5 -4 -3 -4 -6 -6 -6 -6 -7 -8 -9 -10 -10 -10 -10 -10 -9 -11 -11 -10 -10 -10 -11 -12 -13 -14 -14 -15 -15 -15 -14 -14 -13 -12 -9 -8 -8 -8 -7 -5 -6 -6 -5 -4 -2 -2
15 14 14 12 13 6 -3 12 16 17 16 16 16 16 18 18 18 17 15 13 12 13 12 11 9 7 6 5 4 5 2 -1 -3 -3 -1 -2 -3 -4 -5 -5 -5 -4 -4 -6 -7 -6 -7 -7 -8 -9 -10 -11 -11 -10 -10 -11 -10 -10 -10 -11 -11 -11 -11 -13 -13 -14 -15 -16 -16 -15 -14 -14 -13 -10 -9 -9 -9 -8 -6 -6 -6 -6 -5 -4 -2 -1
7 15 13 12 12 10 8 11 17 17 16 17 15 14 15 16 15 14 12 10 9 12 12 8 6 5 4 2 3 1 -1 -2 -4 -4 -2 -2 -3 -4 -5 -5 -5 -5 -5 -6 -7 -7 -8 -8 -9 -10 -10 -11 -11 -11 -11 -11 -11 -11 -11 -11 -11 -12 -12 -14 -14 -15 -16 -16 -16 -15 -15 -14 -10 -9 -10 -9 -9 -8 -8 -7 -7 -6 -4 -3 -2 -1
13 15 7 13 12 13 13 15 16 15 16 15 14 13 14 14 12 11 11 9 8 8 8 6 5 5 2 2 0 -2 -3 -4 -4 -3 -2 -3 -4 -4 -5 -5 -5 -5 -6 -7 -8 -7 -8 -9 -10 -10 -11 -12 -11 -11 -11 -11 -11 -11 -12 -11 -12 -12 -14 -14 -14 -15 -17 -16 -16 -16 -14 -12 -11 -10 -10 -10 -9 -8 -8 -8 -6 -5 -3 -0 1 1
14 9 13 12 8 6 9 15 15 13 12 14 14 13 13 12 11 10 9 8 7 7 5 4 4 3 1 2 -1 -3 -4 -5 -4 -3 -3 -4 -4 -5 -5 -5 -6 -6 -7 -7 -8 -8 -9 -9 -10 -11 -12 -12 -12 -12 -12 -12 -12 -12 -12 -12 -12 -13 -14 -15 -15 -17 -17 -17 -17 -16 -14 -12 -11 -11 -10 -10 -9 -9 -8 -5 2 1 -2 -1 3 6
14 14 14 10 10 10 15 16 16 15 14 14 13 13 13 11 9 8 8 7 6 6 4 4 3 2 -0 0 -2 -4 -5 -5 -4 -2 -4 -4 -5 -5 -5 -6 -6 -7 -8 -8 -8 -9 -10 -10 -10 -11 -12 -12 -12 -12 -12 -12 -13 -13 -13 -12 -12 -13 -14 -15 -16 -17 -17 -17 -17 -15 -13 -12 -12 -11 -10 -10 -9 -9 -8 -9 -8 6 8 7 4 7